TimeEDT,TemperatureF,Dew PointF,Humidity,Sea Level PressureIn,VisibilityMPH,Wind Direction,Wind SpeedMPH,Gust SpeedMPH,PrecipitationIn,Events,Conditions,WindDirDegrees,DateUTC
12:15 AM,64.4,60.8,88,30.19,10.0,NE,4.6,-,N/A,,Clear,40,2012-10-12 04:15:00
12:35 AM,64.4,62.6,94,30.18,10.0,NNE,4.6,-,N/A,,Clear,30,2012-10-12 04:35:00
12:55 AM,64.4,62.6,94,30.18,10.0,NNE,3.5,-,N/A,,Clear,20,2012-10-12 04:55:00
1:15 AM,64.4,62.6,94,30.18,10.0,North,3.5,-,N/A,,Clear,360,2012-10-12 05:15:00
1:35 AM,64.4,62.6,94,30.18,10.0,North,3.5,-,N/A,,Clear,10,2012-10-12 05:35:00
1:55 AM,64.4,62.6,94,30.18,10.0,North,3.5,-,N/A,,Clear,10,2012-10-12 05:55:00
2:15 AM,62.6,60.8,94,30.17,10.0,North,3.5,-,N/A,,Clear,10,2012-10-12 06:15:00
2:35 AM,62.6,60.8,94,30.17,10.0,North,3.5,-,N/A,,Clear,10,2012-10-12 06:35:00
2:55 AM,62.6,60.8,94,30.16,10.0,Calm,Calm,-,N/A,,Clear,0,2012-10-12 06:55:00
3:15 AM,62.6,60.8,94,30.15,10.0,North,3.5,-,N/A,,Clear,10,2012-10-12 07:15:00
3:35 AM,62.6,60.8,94,30.15,10.0,Calm,Calm,-,N/A,,Clear,0,2012-10-12 07:35:00
4:15 AM,62.6,60.8,94,30.15,10.0,North,3.5,-,N/A,,Clear,10,2012-10-12 08:15:00
4:35 AM,62.6,60.8,94,30.14,10.0,North,3.5,-,N/A,,Clear,360,2012-10-12 08:35:00
4:55 AM,62.6,60.8,94,30.15,10.0,North,4.6,-,N/A,,Clear,360,2012-10-12 08:55:00
5:15 AM,62.6,60.8,94,30.15,10.0,North,4.6,-,N/A,,Clear,10,2012-10-12 09:15:00
5:35 AM,62.6,60.8,94,30.16,10.0,North,4.6,-,N/A,,Clear,10,2012-10-12 09:35:00
5:55 AM,62.6,60.8,94,30.16,10.0,North,4.6,-,N/A,,Clear,10,2012-10-12 09:55:00
6:15 AM,62.6,59.0,88,30.17,10.0,North,3.5,-,N/A,,Clear,10,2012-10-12 10:15:00
6:55 AM,60.8,59.0,94,30.18,10.0,Calm,Calm,-,N/A,,Clear,0,2012-10-12 10:55:00
7:15 AM,60.8,59.0,94,30.18,10.0,Calm,Calm,-,N/A,,Clear,0,2012-10-12 11:15:00
7:35 AM,60.8,59.0,94,30.18,10.0,Calm,Calm,-,N/A,,Clear,0,2012-10-12 11:35:00
7:55 AM,60.8,59.0,94,30.19,10.0,Calm,Calm,-,N/A,,Clear,0,2012-10-12 11:55:00
8:15 AM,62.6,60.8,94,30.20,10.0,North,3.5,-,N/A,,Clear,360,2012-10-12 12:15:00
8:35 AM,64.4,60.8,88,30.20,10.0,NNE,4.6,-,N/A,,Clear,20,2012-10-12 12:35:00
8:55 AM,66.2,62.6,88,30.20,10.0,NNE,6.9,-,N/A,,Clear,20,2012-10-12 12:55:00
9:15 AM,68.0,62.6,83,30.20,10.0,NNE,8.1,-,N/A,,Clear,20,2012-10-12 13:15:00
9:35 AM,69.8,62.6,78,30.21,10.0,NNE,9.2,-,N/A,,Clear,20,2012-10-12 13:35:00
9:55 AM,71.6,64.4,78,30.21,10.0,North,6.9,-,N/A,,Clear,10,2012-10-12 13:55:00
10:15 AM,73.4,64.4,73,30.22,10.0,NNE,6.9,-,N/A,,Clear,20,2012-10-12 14:15:00
10:35 AM,75.2,64.4,69,30.22,10.0,NNE,9.2,-,N/A,,Clear,30,2012-10-12 14:35:00
10:55 AM,77.0,64.4,65,30.21,10.0,NNE,11.5,16.1,N/A,,Clear,30,2012-10-12 14:55:00
11:15 AM,78.8,64.4,61,30.22,10.0,NE,8.1,-,N/A,,Scattered Clouds,40,2012-10-12 15:15:00
11:35 AM,78.8,62.6,57,30.22,10.0,NE,10.4,18.4,N/A,,Mostly Cloudy,50,2012-10-12 15:35:00
12:15 PM,80.6,62.6,54,30.20,10.0,NE,11.5,17.3,N/A,,Scattered Clouds,50,2012-10-12 16:15:00
12:35 PM,80.6,60.8,51,30.20,10.0,NE,10.4,-,N/A,,Scattered Clouds,50,2012-10-12 16:35:00
12:55 PM,80.6,60.8,51,30.19,10.0,ENE,11.5,16.1,N/A,,Scattered Clouds,60,2012-10-12 16:55:00
1:15 PM,82.4,59.0,45,30.18,10.0,NE,9.2,18.4,N/A,,Clear,40,2012-10-12 17:15:00
1:35 PM,82.4,59.0,45,30.17,10.0,NNE,6.9,17.3,N/A,,Clear,30,2012-10-12 17:35:00
1:55 PM,84.2,59.0,42,30.16,10.0,NNE,4.6,16.1,N/A,,Clear,30,2012-10-12 17:55:00
2:35 PM,86.0,55.4,35,30.14,10.0,North,6.9,-,N/A,,Clear,10,2012-10-12 18:35:00
2:55 PM,84.2,55.4,37,30.13,10.0,NNE,12.7,18.4,N/A,,Clear,20,2012-10-12 18:55:00
3:15 PM,84.2,55.4,37,30.13,10.0,NNE,10.4,-,N/A,,Clear,30,2012-10-12 19:15:00
3:35 PM,84.2,55.4,37,30.13,10.0,North,11.5,-,N/A,,Clear,10,2012-10-12 19:35:00
3:55 PM,84.2,55.4,37,30.13,10.0,North,12.7,18.4,N/A,,Clear,10,2012-10-12 19:55:00
4:15 PM,84.2,55.4,37,30.13,10.0,North,10.4,-,N/A,,Clear,10,2012-10-12 20:15:00
4:35 PM,84.2,55.4,37,30.12,10.0,North,10.4,-,N/A,,Clear,10,2012-10-12 20:35:00
4:55 PM,84.2,55.4,37,30.13,10.0,NE,9.2,-,N/A,,Clear,40,2012-10-12 20:55:00
5:15 PM,82.4,53.6,37,30.13,10.0,NNE,3.5,-,N/A,,Clear,30,2012-10-12 21:15:00
5:35 PM,82.4,53.6,37,30.13,10.0,ENE,8.1,-,N/A,,Clear,60,2012-10-12 21:35:00
6:15 PM,80.6,55.4,42,30.14,10.0,NNE,9.2,-,N/A,,Clear,20,2012-10-12 22:15:00
6:55 PM,77.0,55.4,47,30.14,10.0,NNE,5.8,-,N/A,,Clear,30,2012-10-12 22:55:00
7:15 PM,73.4,59.0,61,30.15,10.0,NNE,3.5,-,N/A,,Clear,20,2012-10-12 23:15:00
7:35 PM,73.4,59.0,61,30.15,10.0,Calm,Calm,-,N/A,,Clear,0,2012-10-12 23:35:00
7:55 PM,71.6,59.0,64,30.15,10.0,NE,3.5,-,N/A,,Clear,50,2012-10-12 23:55:00
8:15 PM,69.8,60.8,73,30.16,10.0,Calm,Calm,-,N/A,,Clear,0,2012-10-13 00:15:00
8:35 PM,69.8,60.8,73,30.17,10.0,Calm,Calm,-,N/A,,Clear,0,2012-10-13 00:35:00
8:55 PM,68.0,60.8,78,30.18,10.0,Calm,Calm,-,N/A,,Clear,0,2012-10-13 00:55:00
9:15 PM,68.0,60.8,78,30.18,10.0,Calm,Calm,-,N/A,,Clear,0,2012-10-13 01:15:00
9:35 PM,68.0,60.8,78,30.19,10.0,Calm,Calm,-,N/A,,Clear,0,2012-10-13 01:35:00
10:15 PM,68.0,59.0,73,30.20,10.0,NE,4.6,-,N/A,,Clear,50,2012-10-13 02:15:00
10:35 PM,66.2,59.0,78,30.20,10.0,Calm,Calm,-,N/A,,Clear,0,2012-10-13 02:35:00
10:55 PM,66.2,60.8,83,30.20,10.0,Calm,Calm,-,N/A,,Clear,0,2012-10-13 02:55:00
11:15 PM,66.2,60.8,83,30.20,10.0,Calm,Calm,-,N/A,,Clear,0,2012-10-13 03:15:00
11:35 PM,64.4,60.8,88,30.20,10.0,Calm,Calm,-,N/A,,Clear,0,2012-10-13 03:35:00
11:55 PM,64.4,60.8,88,30.20,10.0,Calm,Calm,-,N/A,,Clear,0,2012-10-13 03:55:00